Weather Roundup
Issued by NWS

Home | Current Version | Previous Version | Text Only | Print | Product List | Glossary On
Versions: 1 2 3 4 5 6 7 8 9 10 11 12 13 14 15 16 17 18 19 20 21 22 23 24 25 26 27 28 29 30 31 32 33 34 35 36 37 38 39 40 41 42 43 44 45 46 47 48 49 50
000
NZUS93 KARX 272210
HRRWXR

CURRENT HOURLY OBSERVATIONS ACROSS
MUCH OF THE UPPER MISSISSIPPI VALLEY
NATIONAL WEATHER SERVICE LA CROSSE WI
500 PM CDT THU JUL 27 2017


...SOUTHEAST MINNESOTA...


CITY           SKY/WX    TMP DP  RH WIND       PRES   REMARKS
ROCHESTER      FAIR      80  62  54 NE14      30.04F
ROCHESTER/MAYO FAIR      82  57  42 N8G16     30.04F
WINONA         FAIR      81  61  50 N7        30.01F
AUSTIN         FAIR      82  63  51 N12       30.03F
ALBERT LEA     FAIR      81  64  57 NE10      30.04F
DODGE CENTER   FAIR      81  63  54 N7        30.05F
PRESTON        FAIR      79  61  54 N10       30.04S
OWATONNA       FAIR      82  63  51 N10       30.04F
FARIBAULT      FAIR      79  63  57 N5        30.04F
$$

...ELSEWHERE IN MINNESOTA...


CITY           SKY/WX    TMP DP  RH WIND       PRES   REMARKS
MINNEAPOLIS    PTSUNNY   85  56  37 N8        30.03F
INTNL FALLS    FAIR      83  57  41 N5        30.06F
DULUTH         FAIR      76  59  55 SE8       30.08F
RED WING       FAIR      84  55  37 N7        30.02S
REDWOOD FALLS  FAIR      82  58  43 N6        30.05F
MANKATO        FAIR      81  60  48 N6        30.05F
WORTHINGTON    FAIR      80  61  52 N9        30.08F
FAIRMONT       FAIR      81  62  52 N10       30.05F
$$

...SOUTHWEST WISCONSIN...


CITY           SKY/WX    TMP DP  RH WIND       PRES   REMARKS
LA CROSSE      PTSUNNY   85  63  47 VRB3      29.99F
PRAIRIE DU CHI FAIR      82  56  39 NE12      29.99S
BOSCOBEL       FAIR      84  61  45 NE5       29.99F
LONE ROCK      FAIR      83  63  50 NE6       29.98F
PLATTEVILLE    FAIR      81  61  51 N12       30.00S
FORT MC COY    CLOUDY    80  61  52 CALM      30.01S
CAMP DOUGLAS   FAIR      81  63  55 NE7       30.00F
MAUSTON-NEW LI MOCLDY    80  64  57 CALM      30.00S
VIROQUA        FAIR      79  64  58 N7        30.02F
WIS DELLS      FAIR      82  60  46 E12       30.00S
$$

...ELSEWHERE IN WISCONSIN...


CITY           SKY/WX    TMP DP  RH WIND       PRES   REMARKS
MILWAUKEE      FAIR      76  60  57 N15G28    29.98S
MADISON        PTSUNNY   82  62  50 NE14G20   29.99S
GREEN BAY      FAIR      79  62  56 NE10      30.01F
EAU CLAIRE     FAIR      83  58  42 N8        30.01F
BLACK RVR FLS  FAIR      85  57  38 N5        30.00F
MEDFORD        PTSUNNY   79  58  48 N5        30.05S
WAUSAU         PTSUNNY   80  58  46 VRB3      30.02F
WIS RAPIDS     FAIR      82  60  47 E8        30.03F
MARSHFIELD     FAIR      81  59  47 E6        30.03F
RICE LAKE      FAIR      82  57  41 N8        30.06F
$$

...NORTHEAST IOWA...


CITY           SKY/WX    TMP DP  RH WIND       PRES   REMARKS
WATERLOO       FAIR      82  61  48 N13       29.99S
DUBUQUE        FAIR      81  64  56 N9        29.99S
DECORAH        FAIR      81  63  54 NE6G12    30.00F
MASON CITY     FAIR      83  65  54 NE10      30.04F
CHARLES CITY   FAIR      82  63  51 N9        30.02F
OELWEIN        FAIR      81  64  57 NE7       30.01F
$$

...ELSEWHERE IN IOWA...


CITY           SKY/WX    TMP DP  RH WIND       PRES   REMARKS
DES MOINES     FAIR      87  60  40 N13       29.98S
IOWA CITY      FAIR      86  67  52 NE12      29.96F
FORT DODGE     FAIR      82  63  51 NE7       30.03F
MARSHALLTOWN   FAIR      83  61  47 NE10      29.99F
CEDAR RAPIDS   MOSUNNY   81  64  57 NE9       29.96F
$$

...NORTHERN ILLINOIS...


CITY           SKY/WX    TMP DP  RH WIND       PRES   REMARKS
CHICAGO-OHARE  FAIR      81  59  47 NE20G25   29.94S
CHICAGO-MIDWAY FAIR      80  66  62 NE16      29.92F
MOLINE         FAIR      83  68  60 NE9       29.93S
ROCKFORD       FAIR      85  61  44 NE17G24   29.96F
PEORIA         FAIR      83  72  69 NE6       29.89F
$$

NOTE: "FAIR" INDICATES FEW OR NO CLOUDS BELOW 12,000 FEET WITH NO
SIGNIFICANT WEATHER AND/OR OBSTRUCTIONS TO VISIBILITY. WIND
SPEEDS ARE IN MILES-PER-HOUR.




USA.gov is the U.S. government's official web portal to all federal, state and local government web resources and services.